Change the Weather History Date:

Tuesday, January 8, 2013

  Actual Average Record
Temperature  
Mean Temperature 19 °F -  
Max Temperature 33 °F 16 °F 55 °F (2003)
Min Temperature 5 °F -10 °F -40 °F (1982)
Degree Days  
Heating Degree Days 46    
Moisture  
Dew Point 17 °F    
Average Humidity 83    
Maximum Humidity 93    
Minimum Humidity 69    
Precipitation  
Precipitation 0.00 in - - ()
Sea Level Pressure  
Sea Level Pressure 29.85 in    
Wind  
Wind Speed 2 mph (South)    
Max Wind Speed 13 mph    
Max Gust Speed 20 mph    
Visibility 8 miles    
Events Fog    
Averages and records for this station are not official NWS values.
T = Trace of Precipitation, MM = Missing Value Source: NWS Daily Summary

Daily Weather History Graph

Daily Weather History Graph

Search for Another Location

Airport or City:

Trip Planner

Search our weather history database for the weather conditions in past years. The results will help you decide how hot, cold, wet, or windy it might be!

Date:

Astronomy

Jan. 08, 2013 Rise Set
Actual Time 7:53 AM CST 4:46 PM CST
Civil Twilight 7:19 AM CST 5:20 PM CST
Nautical Twilight 6:42 AM CST 5:57 PM CST
Astronomical Twilight 6:06 AM CST 6:33 PM CST
Moon 4:26 AM CST (1/8) 1:49 PM CST (1/8)
Length of Visible Light 10h 00m
Length of Day
8h 52m
Waning Crescent, 13% of the Moon is Illuminated
Jan 8
Waning Crescent
Jan 11
New
Jan 18
First Quarter
Jan 26
Full
Feb 3
Last Quarter

Hourly Weather History & Observations

Time (CST) Temp. Windchill Dew Point Humidity Pressure Visibility Wind Dir Wind Speed Gust Speed Precip Events Conditions
12:14 AM 15.8 °F - 14.0 °F 93% 29.94 in 1.8 mi Calm Calm - N/A   Mist
12:34 AM 14.0 °F - 12.2 °F 93% 29.94 in 7.0 mi Calm Calm - N/A   Clear
12:54 AM 12.2 °F - 8.6 °F 85% 29.95 in 7.0 mi Calm Calm - N/A   Clear
1:14 AM 10.4 °F - 6.8 °F 85% 29.94 in 10.0 mi Calm Calm - N/A   Clear
1:34 AM 10.4 °F - 6.8 °F 85% 29.94 in 5.0 mi Calm Calm - N/A   Clear
1:54 AM 8.6 °F - 5.0 °F 85% 29.95 in 4.0 mi Calm Calm - N/A   Clear
2:14 AM 10.4 °F - 6.8 °F 85% 29.96 in 10.0 mi Calm Calm - N/A   Clear
2:34 AM 6.8 °F - 3.2 °F 85% 29.96 in 10.0 mi Calm Calm - N/A   Clear
2:54 AM 6.8 °F - 3.2 °F 85% 29.97 in 10.0 mi Calm Calm - N/A   Clear
3:14 AM 6.8 °F - 3.2 °F 85% 29.97 in 10.0 mi Calm Calm - N/A   Clear
3:34 AM 6.8 °F - 3.2 °F 85% 29.96 in 10.0 mi Calm Calm - N/A   Clear
3:54 AM 6.8 °F - 3.2 °F 85% 29.96 in 10.0 mi Calm Calm - N/A   Scattered Clouds
4:14 AM 6.8 °F - 3.2 °F 85% 29.95 in 4.0 mi Calm Calm - N/A   Overcast
4:34 AM 5.0 °F - 1.4 °F 85% 29.94 in 2.5 mi Calm Calm - N/A   Overcast
4:54 AM 5.0 °F - 1.4 °F 85% 29.94 in 0.2 mi Calm Calm - N/A Fog Light Freezing Fog
5:14 AM 6.8 °F - 3.2 °F 85% 29.93 in 0.2 mi Calm Calm - N/A Fog Light Freezing Fog
5:34 AM 6.8 °F - 3.2 °F 85% 29.93 in 0.2 mi Calm Calm - N/A Fog Light Freezing Fog
5:54 AM 8.6 °F - 3.2 °F 79% 29.93 in 0.2 mi Calm Calm - N/A Fog Light Freezing Fog
6:14 AM 6.8 °F - 3.2 °F 85% 29.93 in 0.2 mi Calm Calm - N/A Fog Light Freezing Fog
6:34 AM 6.8 °F - 3.2 °F 85% 29.94 in 0.2 mi Calm Calm - N/A Fog Light Freezing Fog
6:54 AM 6.8 °F - 3.2 °F 85% 29.94 in 0.2 mi Calm Calm - N/A Fog Light Freezing Fog
7:34 AM 8.6 °F - 5.0 °F 85% 29.95 in 4.0 mi Calm Calm - N/A   Overcast
7:54 AM 8.6 °F - 5.0 °F 85% 29.96 in 5.0 mi Calm Calm - N/A   Overcast
8:14 AM 10.4 °F - 5.0 °F 79% 29.95 in 2.0 mi Calm Calm - N/A   Overcast
8:34 AM 10.4 °F - 5.0 °F 79% 29.94 in 7.0 mi Calm Calm - N/A   Overcast
8:54 AM 12.2 °F - 8.6 °F 85% 29.95 in 7.0 mi Calm Calm - N/A   Mostly Cloudy
9:14 AM 12.2 °F - 8.6 °F 85% 29.96 in 7.0 mi Calm Calm - N/A   Scattered Clouds
9:34 AM 14.0 °F - 12.2 °F 93% 29.94 in 5.0 mi Calm Calm - N/A   Clear
9:54 AM 15.8 °F - 12.2 °F 86% 29.93 in 5.0 mi Calm Calm - N/A   Clear
10:14 AM 17.6 °F - 14.0 °F 86% 29.92 in 5.0 mi Calm Calm - N/A   Scattered Clouds
10:34 AM 19.4 °F - 17.6 °F 93% 29.92 in 5.0 mi Calm Calm - N/A   Mostly Cloudy
10:54 AM 21.2 °F - 17.6 °F 86% 29.91 in 5.0 mi Calm Calm - N/A   Scattered Clouds
11:14 AM 23.0 °F - 21.2 °F 93% 29.90 in 5.0 mi Calm Calm - N/A   Mostly Cloudy
11:34 AM 23.0 °F - 21.2 °F 93% 29.89 in 7.0 mi Calm Calm - N/A   Scattered Clouds
11:54 AM 24.8 °F 19.1 °F 23.0 °F 93% 29.87 in 7.0 mi East 4.6 mph - N/A   Clear
12:14 PM 26.6 °F 21.2 °F 24.8 °F 93% 29.85 in 10.0 mi East 4.6 mph - N/A   Clear
12:34 PM 26.6 °F 22.6 °F 24.8 °F 93% 29.83 in 10.0 mi East 3.5 mph - N/A   Clear
12:54 PM 26.6 °F 21.2 °F 24.8 °F 93% 29.82 in 10.0 mi SE 4.6 mph - N/A   Clear
1:14 PM 28.4 °F 21.2 °F 26.6 °F 93% 29.81 in 10.0 mi SE 6.9 mph - N/A   Scattered Clouds
1:54 PM 30.2 °F 23.4 °F 23.0 °F 75% 29.79 in 10.0 mi ESE 6.9 mph - N/A   Mostly Cloudy
2:14 PM 32.0 °F 26.4 °F 23.0 °F 69% 29.78 in 10.0 mi ESE 5.8 mph - N/A   Overcast
2:34 PM 32.0 °F 25.6 °F 23.0 °F 69% 29.76 in 10.0 mi ESE 6.9 mph - N/A   Overcast
2:54 PM 32.0 °F 24.8 °F 23.0 °F 69% 29.74 in 10.0 mi SE 8.1 mph - N/A   Overcast
3:14 PM 32.0 °F 24.2 °F 24.8 °F 75% 29.71 in 10.0 mi ESE 9.2 mph - N/A   Mostly Cloudy
3:34 PM 32.0 °F 26.4 °F 26.6 °F 80% 29.74 in 10.0 mi SSE 5.8 mph - N/A   Mostly Cloudy
3:54 PM 33.8 °F 27.7 °F 26.6 °F 75% 29.74 in 10.0 mi SSE 6.9 mph - N/A   Mostly Cloudy
4:14 PM 32.0 °F 25.6 °F 26.6 °F 80% 29.74 in 10.0 mi SSE 6.9 mph - N/A   Mostly Cloudy
4:30 PM 32.0 °F 24.2 °F 24.8 °F 75% 29.74 in 10.0 mi South 9.2 mph - N/A   Overcast
4:54 PM 32.0 °F 24.8 °F 24.8 °F 75% 29.74 in 10.0 mi South 8.1 mph - N/A   Overcast
5:14 PM 32.0 °F 22.5 °F 24.8 °F 75% 29.73 in 10.0 mi South 12.7 mph 18.4 mph N/A   Overcast
5:34 PM 32.0 °F 23.0 °F 26.6 °F 80% 29.73 in 10.0 mi South 11.5 mph 16.1 mph N/A   Overcast
5:54 PM 32.0 °F 23.6 °F 26.6 °F 80% 29.73 in 10.0 mi SSW 10.4 mph - N/A   Overcast
6:14 PM 32.0 °F 24.8 °F 26.6 °F 80% 29.73 in 10.0 mi SSW 8.1 mph - N/A   Overcast
6:34 PM 32.0 °F 24.8 °F 26.6 °F 80% 29.73 in 10.0 mi SSW 8.1 mph - N/A   Overcast
6:54 PM 32.0 °F 24.8 °F 26.6 °F 80% 29.73 in 10.0 mi SW 8.1 mph - N/A   Overcast
7:14 PM 32.0 °F 24.2 °F 26.6 °F 80% 29.74 in 10.0 mi SW 9.2 mph - N/A   Overcast
7:34 PM 32.0 °F 23.6 °F 26.6 °F 80% 29.74 in 10.0 mi WSW 10.4 mph - N/A   Overcast
7:54 PM 32.0 °F 23.0 °F 26.6 °F 80% 29.74 in 10.0 mi WSW 11.5 mph 19.6 mph N/A   Overcast
8:14 PM 32.0 °F 23.0 °F 26.6 °F 80% 29.75 in 10.0 mi West 11.5 mph 18.4 mph N/A   Overcast
8:34 PM 32.0 °F 23.6 °F 26.6 °F 80% 29.76 in 10.0 mi West 10.4 mph - N/A   Overcast
8:54 PM 32.0 °F 24.8 °F 26.6 °F 80% 29.76 in 10.0 mi WSW 8.1 mph - N/A   Overcast
9:14 PM 32.0 °F 24.8 °F 26.6 °F 80% 29.76 in 10.0 mi WSW 8.1 mph - N/A   Overcast
9:34 PM 32.0 °F 26.4 °F 26.6 °F 80% 29.77 in 10.0 mi WSW 5.8 mph - N/A   Overcast
9:54 PM 32.0 °F 25.6 °F 26.6 °F 80% 29.78 in 10.0 mi WSW 6.9 mph - N/A   Overcast
10:14 PM 30.2 °F 23.4 °F 26.6 °F 86% 29.79 in 10.0 mi SW 6.9 mph - N/A   Overcast
10:34 PM 30.2 °F 25.4 °F 26.6 °F 86% 29.80 in 10.0 mi WSW 4.6 mph - N/A   Overcast
11:14 PM 28.4 °F 21.2 °F 24.8 °F 86% 29.82 in 10.0 mi SW 6.9 mph - N/A   Clear
11:54 PM 28.4 °F 22.2 °F 23.0 °F 80% 29.82 in 10.0 mi WSW 5.8 mph - N/A   Scattered Clouds